Regional Weather Roundup
Issued by NWS Kansas City/Pleasant Hill, MO

Home | Current Version | Previous Version | Graphics & Text | Print | Product List | Glossary Off
Versions: 1 2 3 4 5 6 7 8 9 10 11 12 13 14 15 16 17 18 19 20 21 22 23 24 25 26 27 28 29 30 31 32 33 34 35 36 37 38 39 40 41 42 43 44 45 46 47 48 49 50

000
ASUS43 KEAX 292010
RWREAX

WEATHER ROUNDUP FOR EASTERN KANSAS AND NORTHWEST MISSOURI
NATIONAL WEATHER SERVICE KANSAS CITY/PLEASANT HILL MO
200 PM CST THU JAN 29 2015

KSZ040-057-103>105-MOZ028-029-037-043-292100-
...KANSAS CITY METROPOLITAN AREA...

CITY           SKY/WX    TMP DP  RH WIND       PRES   REMARKS
K.C. INTL      CLOUDY    41  27  57 N22       30.36R WCI  31
K.C. DOWNTOWN  CLOUDY    43  27  53 N14G23    30.37R
LEES SUMMIT    CLOUDY    42  27  55 N18G25    30.36R WCI  34
OLATHE - IXD   CLOUDY    42  27  55 NW24G31   30.38R WCI  32
OLATHE - OJC   CLOUDY    41  27  57 N16G25    30.36R WCI  33
LAWRENCE       CLOUDY    44  27  51 N18G32    30.39S

$$

MOZ001>008-011>017-020>025-030>033-038>040-044>046-053-054-292100-
...NORTHERN AND CENTRAL MISSOURI...

CITY           SKY/WX    TMP DP  RH WIND       PRES   REMARKS
ST. JOSEPH     CLOUDY    41  26  55 N26G32    30.38S WCI  30
MOSBY          CLOUDY    41  28  60 NW17G26   30.36R WCI  32
WARRENSBURG    CLOUDY    41  28  60 NW18G26   30.34R WCI  32
WHITEMAN AFB   PTSUNNY   42  28  56 NW18G25   30.31R WCI  34
CLINTON        CLOUDY    43  30  61 NW16      30.34R
SEDALIA        CLOUDY    42  29  59 NW23      30.31R WCI  33
WARSAW         NOT AVBL
CHILLICOTHE      N/A     41  29  62 NW17G23   30.32R WCI  32
MOBERLY        CLOUDY    39  28  65 NW18G26   30.26R WCI  30
KIRKSVILLE     CLOUDY    37  28  70 NW14G25   30.26R WCI  28

$$

MOZ041-047>049-056>058-063>065-088>090-097-292100-
...EASTERN AND SOUTHERN MISSOURI...

CITY           SKY/WX    TMP DP  RH WIND       PRES   REMARKS
ST. LOUIS INTL CLOUDY    42  31  64 W16       30.18R WCI  34
SPIRIT OF STL  CLOUDY    42  30  62 W16G25    30.19S WCI  34
COLUMBIA       CLOUDY    40  30  67 NW17G25   30.25R WCI  31
JEFFERSON CITY CLOUDY    42  29  59 NW16G24   30.27R WCI  34
MEXICO         CLOUDY    43  34  70 NW17G23   30.22S WCI  35
HANNIBAL       CLOUDY    39  28  65 NW20G28   30.21R WCI  30
ROLLA          CLOUDY    38  28  67 NW16G23   30.22R WCI  29
LEBANON        CLOUDY    39  28  65 NW14G22   30.28R WCI  31
OSAGE BEACH    CLOUDY    41  27  56 NW9G17    30.28S
SPRINGFIELD    CLOUDY    40  29  64 NW21      30.30S WCI  30
BRANSON        CLOUDY    39  32  75 NW14G24   30.30R WCI  31
JOPLIN         CLOUDY    45  29  53 NW21G29   30.37S
WEST PLAINS    CLOUDY    40  30  67 NW15G25   30.24F WCI  32

$$

IAZ060-094-KSZ022-034>040-054-083-096-NEZ052-066-093-292100-
...KANSAS...SOUTHEAST NEBRASKA AND IOWA...

CITY           SKY/WX    TMP DP  RH WIND       PRES   REMARKS
TOPEKA         CLOUDY    43  27  53 N21G28    30.41S WCI  34
MANHATTAN      CLOUDY    44  27  51 N10G18    30.44S
EMPORIA        CLOUDY    45  27  49 N18G30    30.40S
CHANUTE        CLOUDY    48  29  47 NW20G30   30.39S
WICHITA        PTSUNNY   50  26  39 N18G28    30.43F
OMAHA          CLOUDY    38  25  59 N24G30    30.40R WCI  27
LINCOLN        CLOUDY    40  27  59 N20       30.44S WCI  30
FALLS CITY     CLOUDY    42  25  50 N17G26    30.39S WCI  34
LAMONI         CLOUDY    37  26  64 N22G28    30.31R WCI  26
DES MOINES     CLOUDY    37  25  61 N23G32    30.30R WCI  26

$$



USA.gov is the U.S. government's official web portal to all federal, state and local government web resources and services.